TimeCST,TemperatureF,Dew PointF,Humidity,Sea Level PressureIn,VisibilityMPH,Wind Direction,Wind SpeedMPH,Gust SpeedMPH,PrecipitationIn,Events,Conditions,WindDirDegrees,DateUTC
12:15 AM,12.2,1.4,62,30.24,10.0,Calm,Calm,-,N/A,,Mostly Cloudy,0,2014-01-08 06:15:00
12:35 AM,12.2,12.2,100,30.24,10.0,North,3.5,-,N/A,,Mostly Cloudy,360,2014-01-08 06:35:00
12:55 AM,12.2,1.4,62,30.25,10.0,NNW,6.9,-,N/A,,Mostly Cloudy,340,2014-01-08 06:55:00
1:15 AM,12.2,3.2,67,30.26,10.0,NNW,4.6,-,N/A,,Overcast,340,2014-01-08 07:15:00
1:35 AM,10.4,3.2,73,30.26,10.0,Calm,Calm,-,N/A,,Mostly Cloudy,0,2014-01-08 07:35:00
1:55 AM,10.4,3.2,73,30.26,10.0,NNE,3.5,-,N/A,,Partly Cloudy,20,2014-01-08 07:55:00
2:15 AM,10.4,3.2,73,30.26,10.0,NNE,3.5,-,N/A,,Clear,20,2014-01-08 08:15:00
2:35 AM,10.4,3.2,73,30.27,10.0,Calm,Calm,-,N/A,,Clear,0,2014-01-08 08:35:00
2:55 AM,10.4,3.2,73,30.28,10.0,Calm,Calm,-,N/A,,Clear,0,2014-01-08 08:55:00
3:15 AM,8.6,3.2,79,30.28,10.0,Calm,Calm,-,N/A,,Clear,0,2014-01-08 09:15:00
3:35 AM,8.6,3.2,79,30.29,10.0,NNW,3.5,-,N/A,,Clear,340,2014-01-08 09:35:00
3:55 AM,8.6,3.2,79,30.29,10.0,NNW,3.5,-,N/A,,Clear,330,2014-01-08 09:55:00
4:15 AM,6.8,3.2,85,30.29,10.0,NNW,3.5,-,N/A,,Clear,340,2014-01-08 10:15:00
4:35 AM,8.6,3.2,79,30.29,10.0,NNW,4.6,-,N/A,,Partly Cloudy,330,2014-01-08 10:35:00
4:55 AM,6.8,3.2,85,30.29,10.0,NNW,5.8,-,N/A,,Mostly Cloudy,330,2014-01-08 10:55:00
5:15 AM,8.6,3.2,79,30.29,10.0,NNW,3.5,-,N/A,,Overcast,340,2014-01-08 11:15:00
5:35 AM,8.6,3.2,79,30.30,10.0,NNW,5.8,-,N/A,,Overcast,330,2014-01-08 11:35:00
5:55 AM,8.6,5.0,85,30.30,10.0,NNW,4.6,-,N/A,,Overcast,340,2014-01-08 11:55:00
6:15 AM,8.6,6.8,92,30.30,10.0,Calm,Calm,-,N/A,,Overcast,0,2014-01-08 12:15:00
6:35 AM,8.6,3.2,79,30.30,10.0,Calm,Calm,-,N/A,,Overcast,0,2014-01-08 12:35:00
6:55 AM,8.6,3.2,79,30.30,10.0,Calm,Calm,-,N/A,,Overcast,0,2014-01-08 12:55:00
7:15 AM,8.6,5.0,85,30.31,10.0,Calm,Calm,-,N/A,,Overcast,0,2014-01-08 13:15:00
7:35 AM,8.6,3.2,79,30.31,10.0,Calm,Calm,-,N/A,,Overcast,0,2014-01-08 13:35:00
7:55 AM,8.6,3.2,79,30.33,10.0,Calm,Calm,-,N/A,,Overcast,0,2014-01-08 13:55:00
8:15 AM,8.6,3.2,79,30.33,10.0,Calm,Calm,-,N/A,,Overcast,0,2014-01-08 14:15:00
8:35 AM,8.6,3.2,79,30.34,10.0,East,3.5,-,N/A,,Overcast,90,2014-01-08 14:35:00
8:55 AM,10.4,3.2,73,30.36,10.0,East,3.5,-,N/A,,Overcast,100,2014-01-08 14:55:00
9:15 AM,10.4,3.2,73,30.37,10.0,ENE,3.5,-,N/A,,Overcast,70,2014-01-08 15:15:00
9:35 AM,10.4,3.2,73,30.37,10.0,East,6.9,-,N/A,,Overcast,80,2014-01-08 15:35:00
9:55 AM,10.4,3.2,73,30.39,10.0,ENE,5.8,-,N/A,,Overcast,70,2014-01-08 15:55:00
10:15 AM,10.4,3.2,73,30.39,10.0,East,4.6,-,N/A,,Mostly Cloudy,80,2014-01-08 16:15:00
10:35 AM,10.4,3.2,73,30.39,10.0,ENE,4.6,-,N/A,,Overcast,70,2014-01-08 16:35:00
10:55 AM,10.4,3.2,73,30.40,10.0,East,4.6,-,N/A,,Overcast,80,2014-01-08 16:55:00
11:15 AM,10.4,3.2,73,30.39,10.0,ENE,4.6,-,N/A,,Overcast,70,2014-01-08 17:15:00
11:35 AM,12.2,5.0,73,30.39,10.0,ENE,4.6,-,N/A,,Overcast,70,2014-01-08 17:35:00
11:55 AM,12.2,5.0,73,30.39,10.0,SE,3.5,-,N/A,,Overcast,130,2014-01-08 17:55:00
12:15 PM,12.2,3.2,67,30.38,10.0,East,5.8,-,N/A,,Overcast,100,2014-01-08 18:15:00
12:35 PM,12.2,5.0,73,30.37,10.0,East,5.8,-,N/A,,Overcast,90,2014-01-08 18:35:00
12:55 PM,12.2,3.2,67,30.36,10.0,East,5.8,-,N/A,,Overcast,90,2014-01-08 18:55:00
1:15 PM,14.0,5.0,67,30.36,10.0,ESE,6.9,-,N/A,,Overcast,110,2014-01-08 19:15:00
1:35 PM,14.0,3.2,62,30.35,10.0,East,6.9,-,N/A,,Partly Cloudy,100,2014-01-08 19:35:00
1:55 PM,14.0,3.2,62,30.35,10.0,East,6.9,-,N/A,,Scattered Clouds,100,2014-01-08 19:55:00
2:15 PM,14.0,5.0,67,30.35,10.0,ESE,8.1,-,N/A,,Overcast,110,2014-01-08 20:15:00
2:35 PM,15.8,5.0,62,30.35,10.0,ESE,6.9,-,N/A,,Overcast,110,2014-01-08 20:35:00
2:55 PM,15.8,5.0,62,30.35,10.0,East,5.8,-,N/A,,Overcast,100,2014-01-08 20:55:00
3:15 PM,15.8,5.0,62,30.35,10.0,East,6.9,-,N/A,,Overcast,90,2014-01-08 21:15:00
3:35 PM,15.8,5.0,62,30.35,10.0,East,5.8,-,N/A,,Overcast,90,2014-01-08 21:35:00
3:55 PM,15.8,5.0,62,30.35,10.0,East,6.9,-,N/A,,Overcast,100,2014-01-08 21:55:00
4:15 PM,15.8,6.8,68,30.35,10.0,East,6.9,-,N/A,,Overcast,100,2014-01-08 22:15:00
4:35 PM,15.8,6.8,68,30.34,10.0,East,8.1,-,N/A,,Overcast,100,2014-01-08 22:35:00
4:55 PM,15.8,6.8,68,30.33,10.0,East,6.9,-,N/A,,Overcast,100,2014-01-08 22:55:00
5:15 PM,15.8,5.0,62,30.33,10.0,East,8.1,-,N/A,,Overcast,100,2014-01-08 23:15:00
5:35 PM,15.8,6.8,68,30.33,10.0,East,8.1,-,N/A,,Overcast,100,2014-01-08 23:35:00
5:55 PM,15.8,6.8,68,30.33,10.0,East,8.1,-,N/A,,Overcast,100,2014-01-08 23:55:00
6:15 PM,15.8,6.8,68,30.33,10.0,East,6.9,-,N/A,,Overcast,100,2014-01-09 00:15:00
6:35 PM,15.8,6.8,68,30.33,10.0,East,8.1,-,N/A,,Overcast,100,2014-01-09 00:35:00
6:55 PM,15.8,8.6,73,30.33,10.0,ESE,6.9,-,N/A,,Overcast,110,2014-01-09 00:55:00
7:15 PM,15.8,6.8,68,30.33,10.0,ESE,10.4,-,N/A,,Overcast,120,2014-01-09 01:15:00
7:35 PM,15.8,6.8,68,30.33,10.0,ESE,9.2,-,N/A,,Overcast,120,2014-01-09 01:35:00
7:55 PM,15.8,6.8,68,30.33,10.0,SE,10.4,-,N/A,,Overcast,130,2014-01-09 01:55:00
8:15 PM,15.8,6.8,68,30.33,10.0,SE,11.5,-,N/A,,Overcast,130,2014-01-09 02:15:00
8:35 PM,15.8,6.8,68,30.32,10.0,SE,10.4,-,N/A,,Overcast,130,2014-01-09 02:35:00
8:55 PM,15.8,8.6,73,30.32,10.0,SE,11.5,-,N/A,,Overcast,130,2014-01-09 02:55:00
9:15 PM,17.6,8.6,68,30.32,10.0,SE,11.5,-,N/A,,Overcast,140,2014-01-09 03:15:00
9:35 PM,17.6,8.6,68,30.32,10.0,SE,10.4,-,N/A,,Overcast,140,2014-01-09 03:35:00
9:55 PM,17.6,10.4,73,30.31,10.0,SSE,11.5,-,N/A,,Overcast,150,2014-01-09 03:55:00
10:15 PM,17.6,8.6,68,30.31,10.0,SSE,13.8,-,N/A,,Overcast,150,2014-01-09 04:15:00
10:35 PM,17.6,8.6,68,30.30,10.0,SSE,16.1,20.7,N/A,,Overcast,150,2014-01-09 04:35:00
10:55 PM,17.6,8.6,68,30.29,10.0,SSE,17.3,-,N/A,,Overcast,150,2014-01-09 04:55:00
11:15 PM,17.6,8.6,68,30.29,10.0,SSE,11.5,-,N/A,,Overcast,150,2014-01-09 05:15:00
11:35 PM,17.6,8.6,68,30.28,10.0,SSE,12.7,-,N/A,,Overcast,150,2014-01-09 05:35:00
11:55 PM,17.6,8.6,68,30.28,10.0,SE,12.7,-,N/A,,Overcast,140,2014-01-09 05:55:00